Date,TemperatureHighF,TemperatureAvgF,TemperatureLowF,DewpointHighF,DewpointAvgF,DewpointLowF,HumidityHigh,HumidityAvg,HumidityLow,PressureMaxIn,PressureMinIn,WindSpeedMaxMPH,WindSpeedAvgMPH,GustSpeedMaxMPH,PrecipitationSumIn
2013-10-1,82,70,60,68,63,58,96,80,52,29.94,29.85,12,1,12,0.00
2013-10-2,81,71,63,68,64,62,97,82,57,30.02,29.90,9,1,10,0.00
2013-10-3,79,71,66,72,67,62,96,88,71,29.90,29.77,12,1,12,0.74
2013-10-4,83,74,67,72,68,63,96,83,64,29.91,29.83,9,1,9,0.00
2013-10-5,75,69,55,71,64,51,94,87,74,29.86,29.76,11,1,11,0.07
2013-10-6,55,49,44,51,44,40,93,82,64,29.82,29.74,8,0,8,0.02
2013-10-7,70,56,45,53,48,43,96,76,45,30.08,29.82,7,0,7,0.01
2013-10-8,75,61,46,53,49,45,94,68,37,30.16,30.07,9,0,10,0.00
2013-10-9,72,59,48,52,48,45,93,71,38,30.18,30.08,8,0,9,0.00
2013-10-10,75,60,48,59,53,46,94,79,52,30.13,29.97,8,0,9,0.00
2013-10-11,76,66,56,62,57,53,94,75,50,30.00,29.84,16,1,16,0.00
2013-10-12,70,62,47,60,51,40,88,68,40,30.20,29.87,6,0,6,0.00
2013-10-13,65,52,40,44,38,28,91,63,25,30.40,30.20,5,0,6,0.00
2013-10-14,64,53,42,47,41,36,89,65,43,30.38,30.03,11,1,11,0.00
2013-10-15,68,59,46,62,51,42,95,77,57,30.03,29.78,11,1,12,0.11
2013-10-16,53,51,47,46,44,42,84,79,75,29.98,29.89,7,0,7,0.00
2013-10-17,61,51,44,48,43,37,94,77,43,29.96,29.83,6,0,6,0.05
2013-10-18,54,47,42,42,40,38,93,78,59,30.01,29.86,7,0,7,0.01
2013-10-19,55,47,37,41,38,34,91,71,48,29.97,29.82,10,1,10,0.00
2013-10-20,68,53,40,50,43,38,92,72,40,29.85,29.70,12,1,12,0.00
2013-10-21,55,43,32,49,35,26,92,73,44,30.02,29.83,9,0,9,0.07
2013-10-22,41,37,32,39,35,28,95,90,77,30.02,29.85,8,0,8,0.28
2013-10-23,45,39,30,38,33,28,95,80,57,30.09,30.00,6,0,6,0.01
2013-10-24,43,37,29,36,28,24,91,70,50,30.38,30.08,7,0,7,0.00
2013-10-25,54,40,27,37,28,25,94,67,34,30.45,30.10,9,1,9,0.00
2013-10-26,55,46,33,40,32,28,86,61,41,30.13,29.95,11,1,11,0.00
2013-10-27,57,42,29,37,31,27,93,68,39,30.11,29.97,8,0,9,0.00
2013-10-28,61,46,34,41,35,31,89,68,37,30.31,30.05,9,1,9,0.00
2013-10-29,55,48,40,51,42,37,94,80,58,30.30,30.08,10,1,10,0.00
2013-10-30,64,57,52,63,56,51,98,97,94,30.08,29.72,11,1,11,0.96
2013-10-31,64,56,45,63,55,43,97,95,92,29.72,29.32,10,1,11,0.46